パンスターズ彗星

C/2024 F2 ( PanSTARRS )

English version
Home page
Updated on May 21, 2024

---------------------------------------------------------------------

・ プロフィール

発見日 2024年3月21日
発見光度 21.0等
発見者 Pan-STARRS 1 telescope (Haleakala)

・ 写真集

・ 軌道要素

Epoch 2024 Mar. 31.0 TT = JDT 2460400.5
T 2024 July 28.98613 TT                                 Rudenko
q   3.9686004            (2000.0)            P               Q
n   0.03139248     Peri.  112.87297     -0.29448868     +0.94284362
a   9.9521977      Node   138.95919     -0.94054830     -0.25704610
e   0.6012338      Incl.   13.74034     -0.16924926     -0.21206887
P  31.4
>From 84 observations 2024 Mar. 21-May 10, mean residual 0".4.

・ 光度変化

        m1 = 10.5 + 5 logΔ + 10.0 log r

---------------------------------------------------------------------

軌道要素はM.P.E.C. 2024-J304に掲載されたものです。
光度グラフはComet for Windowsで作成したものです。

---------------------------------------------------------------------

Copyright(C) Seiichi Yoshida (comet@aerith.net). All rights reserved.